Weather History for KEDW - July, 2013

Change the Weather History Date:

Thursday, July 4, 2013

  Actual Average Record
Temperature  
Mean Temperature 91 °F -  
Max Temperature 108 °F 95 °F 109 °F (2007)
Min Temperature 74 °F 63 °F 57 °F (1998)
Cooling Degree Days 26    
Growing Degree Days 41 (Base 50)    
Moisture  
Dew Point 50 °F    
Average Humidity 27    
Maximum Humidity 43    
Minimum Humidity 13    
Precipitation  
Precipitation 0.00 in - - ()
Sea Level Pressure  
Sea Level Pressure 29.68 in    
Wind  
Wind Speed 11 mph (SW)    
Max Wind Speed 26 mph    
Max Gust Speed 33 mph    
Visibility 10 miles    
Events      
Averages and records for this station are not official NWS values.
T = Trace of Precipitation, MM = Missing Value Source: NWS Daily Summary

Daily Weather History Graph

Daily Weather History Graph

Search for Another Location

Airport or City:

Trip Planner

Search our weather history database for the weather conditions in past years. The results will help you decide how hot, cold, wet, or windy it might be!

Date:

Astronomy

Jul. 04, 2013 Rise Set
Actual Time 5:43 AM PDT 8:08 PM PDT
Civil Twilight 5:13 AM PDT 8:38 PM PDT
Nautical Twilight 4:37 AM PDT 9:14 PM PDT
Astronomical Twilight 3:57 AM PDT 9:54 PM PDT
Moon 2:59 AM PDT 5:19 PM PDT
Length of Visible Light 15h 24m
Length of Day
14h 25m
Waning Crescent, 11% of the Moon is Illuminated
Jul 4
Waning Crescent
Jul 8
New
Jul 15
First Quarter
Jul 22
Full
Jul 29
Last Quarter

Hourly Weather History & Observations

Time (PDT) Temp. Heat Index Dew Point Humidity Pressure Visibility Wind Dir Wind Speed Gust Speed Precip Events Conditions
12:58 AM 79.9 °F - 50.4 °F 36% 29.73 in 10.0 mi SW 10.4 mph - N/A   Clear
1:58 AM 79.7 °F - 49.3 °F 34% 29.71 in 10.0 mi SSW 11.5 mph - N/A   Clear
2:58 AM 79.2 °F - 48.7 °F 34% 29.70 in 10.0 mi SW 8.1 mph - N/A   Clear
3:58 AM 78.6 °F - 50.0 °F 37% 29.68 in 10.0 mi SW 10.4 mph - N/A   Clear
4:58 AM 74.8 °F - 50.7 °F 43% 29.69 in 10.0 mi SW 12.7 mph - N/A   Clear
5:58 AM 75.2 °F - 50.4 °F 42% 29.70 in 10.0 mi SSW 10.4 mph - N/A   Clear
6:58 AM 76.1 °F - 50.4 °F 40% 29.71 in 10.0 mi SW 8.1 mph - N/A   Partly Cloudy
7:58 AM 82.9 °F - 49.5 °F 31% 29.72 in 10.0 mi SW 9.2 mph - N/A   Clear
8:58 AM 88.0 °F - 49.6 °F 27% 29.72 in 10.0 mi SW 9.2 mph - N/A   Clear
9:58 AM 93.6 °F - 50.2 °F 23% 29.72 in 10.0 mi Variable 4.6 mph - N/A   Clear
10:58 AM 98.6 °F - 50.4 °F 20% 29.70 in 10.0 mi South 4.6 mph - N/A   Clear
11:58 AM 102.7 °F - 49.1 °F 16% 29.70 in 10.0 mi Variable 5.8 mph - N/A   Clear
12:58 PM 105.6 °F - 48.0 °F 14% 29.68 in 10.0 mi SW 6.9 mph - N/A   Clear
1:58 PM 107.4 °F - 47.8 °F 14% 29.65 in 10.0 mi SW 10.4 mph 17.3 mph N/A   Clear
2:58 PM 108.0 °F - 47.8 °F 13% 29.64 in 10.0 mi SW 11.5 mph 23.0 mph N/A   Clear
3:58 PM 106.0 °F - 48.2 °F 14% 29.62 in 10.0 mi SW 20.7 mph 29.9 mph N/A   Clear
4:58 PM 103.5 °F - 48.7 °F 16% 29.62 in 10.0 mi SW 26.5 mph 33.4 mph N/A   Clear
5:58 PM 100.4 °F - 50.4 °F 19% 29.63 in 10.0 mi SW 21.9 mph 31.1 mph N/A   Clear
6:58 PM 96.3 °F - 52.0 °F 22% 29.64 in 10.0 mi SW 19.6 mph 31.1 mph N/A   Clear
7:58 PM 91.8 °F 89.3 °F 53.2 °F 27% 29.66 in 10.0 mi WSW 17.3 mph 24.2 mph N/A   Clear
8:58 PM 88.0 °F - 52.5 °F 30% 29.67 in 10.0 mi SW 18.4 mph - N/A   Clear
9:58 PM 84.9 °F - 50.7 °F 31% 29.69 in 10.0 mi SW 12.7 mph - N/A   Clear
10:58 PM 83.3 °F - 50.2 °F 32% 29.70 in 10.0 mi SSW 12.7 mph - N/A   Clear
11:58 PM 81.0 °F - 49.8 °F 34% 29.70 in 10.0 mi SW 13.8 mph - N/A   Clear